Burlington, WA
on Tuesday, November 27, 2012

Tuesday
Previous Day Next Day
Daily Summary
 ActualAverage (KBLI)Record (KBLI)
Temperature
Mean Temperature °F 41°F  
Max Temperature 46°F 47°F 60°F (2011)
Min Temperature 35°F 34°F 4°F (1985)
Degree Days
Heating Degree Days 24 24  
Month to date heating degree days 578  
Cooling Degree Days 0 0  
Month to date cooling degree days 0  
Year to date cooling degree days 42  
Moisture
Dew Point 35°F   
Average Humidity 86    
Maximum Humidity 100    
Minimum Humidity 70    
Precipitation
Precipitation 0.00 in 0.18 in 0.75 in (1995)
Month to date precipitation 5.24  
Year to date precipitation 31.05  
Wind
Wind Speed 4 mph   
Max Wind Speed 7 mph   
Max Gust Speed mph   
Visibility 10 miles   
Events     

Key: T is trace of precipitation, MM is missing value
Source: NWS Daily Summary
Time(PST)TemperatureDew PointHumidity Pressure Visibility Wind DirectionWind SpeedGust SpeedPrecipitationEvents Conditions
12:15 AM 35.6°F 33.8°F 93% 30.10 in 10.0 miles North 6.9 mph - 0.00 in   Mostly Cloudy
12:35 AM 39.2°F 32.0°F 75% 30.10 in 10.0 miles NNE 5.8 mph - 0.00 in   Partly Cloudy
12:55 AM 39.2°F 32.0°F 75% 30.09 in 10.0 miles NNE 3.5 mph - 0.00 in   Clear
1:15 AM 37.4°F 33.8°F 87% 30.09 in 10.0 miles North 5.8 mph - 0.00 in   Clear
1:35 AM 37.4°F 32.0°F 81% 30.10 in 10.0 miles NE 4.6 mph - 0.00 in   Partly Cloudy
2:35 AM 39.2°F 32.0°F 75% 30.09 in 10.0 miles NNE 5.8 mph - 0.00 in   Overcast
2:55 AM 37.4°F 32.0°F 81% 30.10 in 10.0 miles NE 5.8 mph - 0.00 in   Overcast
3:15 AM 37.4°F 33.8°F 87% 30.10 in 10.0 miles NNE 5.8 mph - 0.00 in   Overcast
3:35 AM 37.4°F 33.8°F 87% 30.09 in 10.0 miles East 3.5 mph - 0.00 in   Overcast
4:15 AM 37.4°F 33.8°F 87% 30.09 in 10.0 miles Calm Calm - 0.00 in   Mostly Cloudy
4:35 AM 37.4°F 33.8°F 87% 30.08 in 10.0 miles NE 6.9 mph - 0.00 in   Overcast
4:55 AM 39.2°F 33.8°F 81% 30.08 in 10.0 miles NE 4.6 mph - 0.00 in   Overcast
5:15 AM 37.4°F 33.8°F 87% 30.08 in 10.0 miles ENE 5.8 mph - 0.00 in   Mostly Cloudy
5:35 AM 37.4°F 33.8°F 87% 30.08 in 10.0 miles Calm Calm - 0.00 in   Partly Cloudy
5:55 AM 37.4°F 33.8°F 87% 30.08 in 10.0 miles Calm Calm - 0.00 in   Scattered Clouds
6:15 AM 35.6°F 33.8°F 93% 30.08 in 10.0 miles Calm Calm - 0.00 in   Overcast
6:35 AM 35.6°F 33.8°F 93% 30.08 in 10.0 miles Calm Calm - 0.00 in   Scattered Clouds
6:55 AM 37.4°F 32.0°F 81% 30.09 in 10.0 miles Calm Calm - 0.00 in   Scattered Clouds
7:15 AM 35.6°F 33.8°F 93% 30.08 in 10.0 miles Calm Calm - 0.00 in   Partly Cloudy
7:35 AM 37.4°F 32.0°F 81% 30.08 in 10.0 miles Calm Calm - 0.00 in   Clear
7:55 AM 37.4°F 32.0°F 81% 30.08 in 10.0 miles NNW 3.5 mph - 0.00 in   Clear
8:15 AM 35.6°F 33.8°F 93% 30.09 in 10.0 miles NNW 3.5 mph - 0.00 in   Clear
8:35 AM 37.4°F 33.8°F 87% 30.09 in 10.0 miles North 3.5 mph - 0.00 in   Clear
8:55 AM 37.4°F 33.8°F 87% 30.09 in 10.0 miles Calm Calm - 0.00 in   Clear
9:15 AM 39.2°F 33.8°F 81% 30.09 in 10.0 miles Calm Calm - 0.00 in   Mostly Cloudy
9:55 AM 39.2°F 33.8°F 81% 30.09 in 10.0 miles NE 3.5 mph - 0.00 in   Clear
10:15 AM 41.0°F 33.8°F 76% 30.09 in 10.0 miles NNE 3.5 mph - 0.00 in   Clear
10:35 AM 42.8°F 33.8°F 70% 30.09 in 10.0 miles NNE 5.8 mph - 0.00 in   Clear
10:55 AM 42.8°F 33.8°F 70% 30.09 in 10.0 miles NE 3.5 mph - 0.00 in   Clear
11:15 AM 42.8°F 35.6°F 76% 30.07 in 10.0 miles NE 5.8 mph - 0.00 in   Clear
11:35 AM 42.8°F 35.6°F 76% 30.07 in 10.0 miles NNE 3.5 mph - 0.00 in   Scattered Clouds
11:55 AM 42.8°F 35.6°F 76% 30.06 in 9.0 miles NNE 5.8 mph - 0.00 in   Scattered Clouds
12:15 PM 42.8°F 35.6°F 76% 30.05 in 8.0 miles Calm Calm - 0.00 in   Clear
12:35 PM 44.6°F 35.6°F 71% 30.04 in 9.0 miles Calm Calm - 0.00 in   Clear
12:55 PM 44.6°F 35.6°F 71% 30.04 in 9.0 miles WNW 4.6 mph - 0.00 in   Partly Cloudy
1:15 PM 44.6°F 35.6°F 71% 30.03 in 10.0 miles WNW 4.6 mph - 0.00 in   Scattered Clouds
1:35 PM 46.4°F 37.4°F 71% 30.03 in 9.0 miles WNW 4.6 mph - 0.00 in   Partly Cloudy
1:55 PM 44.6°F 35.6°F 71% 30.02 in 10.0 miles NW 5.8 mph - 0.00 in   Clear
2:15 PM 44.6°F 37.4°F 76% 30.02 in 10.0 miles NNW 5.8 mph - 0.00 in   Scattered Clouds
2:35 PM 44.6°F 37.4°F 76% 30.02 in 10.0 miles NW 5.8 mph - 0.00 in   Partly Cloudy
2:55 PM 44.6°F 37.4°F 76% 30.01 in 10.0 miles NW 5.8 mph - 0.00 in   Clear
3:15 PM 42.8°F 37.4°F 81% 30.01 in 10.0 miles NW 5.8 mph - 0.00 in   Clear
3:55 PM 41.0°F 37.4°F 87% 30.00 in 10.0 miles NW 4.6 mph - 0.00 in   Clear
4:15 PM 39.2°F 37.4°F 93% 30.00 in 10.0 miles NW 5.8 mph - 0.00 in   Clear
4:35 PM 41.0°F 37.4°F 87% 30.00 in 10.0 miles NW 3.5 mph - 0.00 in   Clear
4:55 PM 39.2°F 35.6°F 87% 30.00 in 10.0 miles WNW 4.6 mph - 0.00 in   Clear
5:15 PM 39.2°F 35.6°F 87% 29.99 in 10.0 miles NW 5.8 mph - 0.00 in   Clear
5:35 PM 39.2°F 35.6°F 87% 29.99 in 10.0 miles Calm Calm - 0.00 in   Clear
5:55 PM 37.4°F 35.6°F 93% 29.99 in 10.0 miles Calm Calm - 0.00 in   Clear
6:15 PM 37.4°F 35.6°F 93% 29.98 in 10.0 miles Calm Calm - 0.00 in   Clear
6:35 PM 37.4°F 37.4°F 100% 29.97 in 10.0 miles Calm Calm - 0.00 in   Clear
6:55 PM 37.4°F 37.4°F 100% 29.97 in 10.0 miles Calm Calm - 0.00 in   Clear
7:15 PM 37.4°F 35.6°F 93% 29.96 in 10.0 miles NE 3.5 mph - 0.00 in   Clear
7:35 PM 39.2°F 37.4°F 93% 29.96 in 10.0 miles Calm Calm - 0.00 in   Scattered Clouds
7:55 PM 39.2°F 37.4°F 93% 29.96 in 10.0 miles Calm Calm - 0.00 in   Mostly Cloudy
8:15 PM 37.4°F 37.4°F 100% 29.95 in 10.0 miles Calm Calm - 0.00 in   Mostly Cloudy
8:35 PM 37.4°F 37.4°F 100% 29.95 in 10.0 miles NW 5.8 mph - 0.00 in   Overcast
8:55 PM 39.2°F 37.4°F 93% 29.95 in 10.0 miles NW 5.8 mph - 0.00 in   Mostly Cloudy
9:15 PM 39.2°F 37.4°F 93% 29.94 in 10.0 miles NW 5.8 mph - 0.00 in   Mostly Cloudy
9:35 PM 39.2°F 37.4°F 93% 29.93 in 10.0 miles NNW 3.5 mph - 0.00 in   Scattered Clouds
9:55 PM 37.4°F 37.4°F 100% 29.93 in 10.0 miles NW 3.5 mph - 0.00 in   Clear
10:15 PM 37.4°F 37.4°F 100% 29.93 in 10.0 miles WNW 3.5 mph - 0.00 in   Clear
10:35 PM 37.4°F 37.4°F 100% 29.94 in 10.0 miles SW 3.5 mph - 0.00 in   Clear
10:55 PM 35.6°F 35.6°F 100% 29.94 in 10.0 miles Calm Calm - 0.00 in   Clear
11:15 PM 35.6°F 35.6°F 100% 29.93 in 10.0 miles NNW 4.6 mph - 0.00 in   Clear
11:35 PM 39.2°F 37.4°F 93% 29.92 in 10.0 miles North 6.9 mph - 0.00 in   Clear
11:55 PM 39.2°F 39.2°F 100% 29.92 in 10.0 miles North 6.9 mph - 0.00 in   Clear
Moon Phase
Nov. 27 Nov. 28 Dec. 06 Dec. 13 Dec. 20
Sunrise:07:35 AM (PST) Moon Rise:03:55 PM (PST)
Sunset:04:18 PM (PST) Moon Set:06:44 AM (PST)

Copyright © 2014 The Weather Underground, Inc.